This is the latest recevied weather packets stored in our database for station/object KC5CAM-13. If no packets are shown the sender has not sent any weather packets the latest 10 day(s).
| Time | Temp. | Humidity | Pressure | Rain* | Wind** | Luminosity | Snow |
|---|---|---|---|---|---|---|---|
| 1777401622 | 28.33° C | 78% | 1011.5 hPa | 0 mm | - | 295 W/m² | - |
| 1777401320 | 28.89° C | 78% | 1011.2 hPa | 0 mm | - | 525 W/m² | - |
| 1777401015 | 28.89° C | 79% | 1011.3 hPa | 0 mm | - | 532 W/m² | - |
| 1777400711 | 28.89° C | 78% | 1011.4 hPa | 0 mm | - | 252 W/m² | - |
| 1777400409 | 28.89° C | 77% | 1011.5 hPa | 0 mm | - | 578 W/m² | - |
| 1777400109 | 28.89° C | 78% | 1011.7 hPa | 0 mm | - | 351 W/m² | - |
| 1777399806 | 28.89° C | 78% | 1011.8 hPa | 0 mm | - | 743 W/m² | - |
| 1777399503 | 28.33° C | 79% | 1011.9 hPa | 0 mm | - | 324 W/m² | - |
| 1777399200 | 28.89° C | 80% | 1011.9 hPa | 0 mm | - | 308 W/m² | - |
| 1777398897 | 28.33° C | 81% | 1011.9 hPa | 0 mm | - | 358 W/m² | - |
| 1777398594 | 28.33° C | 80% | 1011.8 hPa | 0 mm | - | 313 W/m² | - |
| 1777398290 | 28.33° C | 79% | 1012.1 hPa | 0 mm | - | 406 W/m² | - |
| 1777397989 | 28.33° C | 80% | 1012.4 hPa | 0 mm | - | 595 W/m² | - |
| 1777397684 | 28.33° C | 81% | 1012.4 hPa | 0 mm | - | 244 W/m² | - |
| 1777397380 | 28.89° C | 80% | 1012.3 hPa | 0 mm | - | 379 W/m² | - |
| 1777397077 | 28.33° C | 81% | 1012.6 hPa | 0 mm | - | 448 W/m² | - |
| 1777396773 | 28.33° C | 81% | 1012.3 hPa | 0 mm | - | 700 W/m² | - |
| 1777396471 | 27.78° C | 82% | 1012.5 hPa | 0 mm | - | 398 W/m² | - |
| 1777396167 | 27.78° C | 81% | 1012.5 hPa | 0 mm | - | 260 W/m² | - |
| 1777395863 | 27.78° C | 82% | 1012.5 hPa | 0 mm | - | 630 W/m² | - |
| 1777395559 | 27.78° C | 83% | 1012.2 hPa | 0 mm | - | 555 W/m² | - |
| 1777395255 | 27.22° C | 84% | 1012.5 hPa | 0 mm | - | 470 W/m² | - |
| 1777394953 | 27.78° C | 83% | 1012.6 hPa | 0 mm | - | 294 W/m² | - |
| 1777394649 | 27.78° C | 83% | 1012.7 hPa | 0 mm | - | 377 W/m² | - |
| 1777394345 | 27.78° C | 83% | 1012.7 hPa | 0 mm | - | 344 W/m² | - |
* Rain latest hour (hover to see other rain measurements)
** Current wind speed in m/s (hover to see current wind gust speed)